RH
14 15 17 19 20 22 23 24 24 23 24 28 35 40 45 47 48 48 48 47 46 46 46 46 48 49 48 45 45 44 43 43 45 45 44 44 44 43 44 45 46 46 46 47 50 48 41 42 50 52 50 48
11 12 13 14 15 15 16 16 15 14 13 15 19 25 30 35 39 42 43 43 43 44 43 44 45 46 47 46 45 45 43 42 42 43 44 44 45 44 42 42 43 46 46 45 46 47 44 40 44 52 54 52
8 9 10 11 13 14 14 15 15 14 12 12 13 16 20 23 27 31 34 35 37 39 40 40 41 42 43 43 42 43 43 42 42 41 42 43 42 42 43 42 40 42 45 47 47 46 45 42 41 45 51 53
6 6 7 8 9 10 11 13 14 14 14 13 13 14 16 18 20 23 26 28 29 31 34 35 37 38 39 40 40 40 40 40 42 42 43 44 41 39 40 42 41 40 40 44 48 48 47 45 43 42 45 50
7 7 6 6 6 6 7 8 10 11 12 13 13 14 15 16 18 19 21 23 24 24 27 29 32 33 34 37 37 38 38 37 38 39 42 44 43 40 38 37 40 41 39 39 42 47 49 49 46 44 43 45
6 7 7 7 6 6 6 6 6 7 8 9 10 12 13 15 17 18 19 20 21 21 22 24 27 29 30 32 33 35 37 37 35 34 36 41 44 44 42 37 35 37 40 40 38 40 45 49 49 47 45 44
5 6 6 7 7 7 7 6 6 6 6 6 6 8 9 11 14 17 18 19 20 20 21 21 23 26 27 28 30 31 33 35 33 31 31 37 42 44 44 41 35 32 34 38 40 38 39 43 47 48 47 46
5 5 6 6 7 7 7 7 7 7 6 6 5 5 6 7 9 12 15 18 19 20 21 21 21 23 25 26 27 28 30 31 32 30 29 32 38 41 40 40 38 32 28 31 36 39 38 38 41 44 45 46
6 5 5 6 6 7 7 8 8 8 7 7 6 6 5 5 6 7 10 13 16 18 20 21 21 21 23 24 25 27 28 30 30 30 29 30 34 37 37 35 35 32 27 24 28 35 40 40 39 40 42 44
7 6 5 5 6 7 7 7 8 8 8 7 7 7 6 6 5 5 6 8 10 14 17 20 21 21 22 23 24 25 27 29 29 29 29 29 30 33 33 31 29 29 27 23 22 28 37 41 41 40 41 41
8 8 7 6 5 6 7 7 7 8 8 8 8 7 7 7 6 6 6 6 7 8 12 15 19 21 22 22 23 24 25 27 28 29 29 28 29 31 32 29 26 26 27 25 22 24 30 36 39 42 44 43
9 9 8 8 6 6 6 6 7 7 7 8 8 8 8 8 7 7 6 6 6 6 7 10 13 17 20 22 23 23 25 27 28 29 30 29 29 30 32 30 26 26 28 28 25 24 24 26 30 37 45 47
8 9 9 9 8 7 7 7 7 7 7 8 8 9 9 9 8 8 7 7 7 7 7 7 8 11 14 18 21 23 24 27 29 30 31 31 30 30 32 32 29 27 28 28 26 25 24 22 22 26 37 45
6 8 9 9 9 9 8 8 9 9 9 9 9 9 9 9 9 9 8 8 8 8 7 7 7 8 9 12 15 19 22 25 29 31 33 33 32 31 31 32 32 30 28 28 27 26 26 24 21 21 25 36
4 6 7 8 9 9 9 9 9 10 10 11 11 11 10 10 10 10 9 9 9 8 8 8 8 8 7 8 10 13 17 21 26 29 32 33 34 33 32 32 33 33 31 29 29 29 28 26 23 20 19 24
3 4 5 6 7 8 9 9 10 11 11 11 12 12 12 12 11 11 11 10 10 9 9 9 8 8 8 8 8 9 12 15 20 24 28 32 34 36 36 34 33 34 35 34 33 33 31 28 26 24 20 19
3 3 3 4 5 6 7 8 9 10 11 11 11 12 12 12 13 12 12 12 11 11 10 10 9 9 9 9 9 8 9 10 13 17 22 28 32 36 38 38 36 35 36 38 37 37 36 33 30 28 25 22
3 3 3 3 3 4 4 5 6 7 8 9 10 11 11 12 12 13 13 13 13 12 12 11 11 10 10 9 9 9 9 9 9 11 15 20 26 32 36 39 40 39 39 40 41 41 40 38 35 33 30 27
3 3 3 3 3 3 3 4 4 5 5 6 7 8 9 10 11 12 13 14 14 13 13 13 12 11 11 10 10 10 10 10 9 9 10 12 17 24 31 36 39 41 43 44 45 45 44 41 39 37 35 32
3 2 3 3 3 3 3 3 3 4 4 5 5 5 6 7 9 10 12 13 14 14 13 13 13 13 12 12 11 11 10 10 10 10 9 9 11 15 21 28 34 38 42 46 48 48 48 46 42 40 39 37
3 3 3 2 3 3 3 3 3 3 3 3 4 5 5 5 6 7 9 11 12 13 13 13 14 14 13 13 13 12 12 11 11 11 11 10 9 10 12 17 24 31 37 44 48 51 52 51 47 43 41 40
3 3 3 3 3 2 2 3 3 3 3 3 3 3 4 4 5 5 6 8 9 10 12 13 14 14 14 14 14 14 13 13 12 12 12 12 11 10 10 11 14 20 28 36 44 50 53 55 55 50 44 41
3 3 3 3 3 3 3 2 3 3 3 3 3 3 3 3 4 4 5 6 7 8 9 11 12 13 14 14 15 15 15 14 14 13 13 13 12 12 11 10 10 12 17 24 34 43 50 54 57 57 52 44
3 3 3 3 3 3 3 3 3 2 2 2 2 3 3 3 3 3 4 4 5 6 7 9 10 12 13 13 14 15 15 16 15 15 14 14 13 13 12 12 11 11 11 14 21 30 40 47 53 58 58 52
3 3 3 3 3 3 3 3 3 3 3 2 2 2 3 3 3 3 3 3 4 4 5 6 8 9 11 12 13 13 14 15 16 16 16 15 14 14 14 13 13 12 11 11 13 17 24 33 42 51 56 56
3 3 3 3 3 3 3 3 3 3 3 2 2 2 2 2 3 3 3 3 3 3 4 4 5 7 8 10 11 12 13 14 15 16 16 16 16 16 15 14 14 14 13 12 12 12 14 18 26 36 45 50
3 3 3 3 3 3 3 3 3 3 3 3 3 3 2 2 2 2 3 2 3 3 3 4 4 5 6 7 8 10 11 12 14 15 16 16 17 17 17 16 15 15 14 14 13 13 12 12 14 19 27 35
3 3 3 3 3 3 3 3 3 3 3 3 3 3 3 2 2 2 2 2 3 2 3 3 3 4 4 5 6 7 9 10 12 13 15 15 16 17 17 17 17 16 16 15 15 14 14 13 13 13 15 19
3 3 3 3 3 3 2 3 2 2 3 2 3 3 3 3 3 3 2 2 3 2 3 3 3 3 3 4 4 5 6 7 9 11 12 14 15 15 16 17 18 18 17 16 16 15 15 14 14 14 13 13
3 3 3 3 3 3 2 3 2 2 2 2 3 3 3 3 3 3 3 3 3 3 2 2 3 3 3 3 3 4 5 5 6 8 9 11 13 14 15 16 17 18 18 17 17 17 16 16 15 15 14 14
3 3 3 3 3 3 3 3 3 2 2 2 2 3 3 3 3 3 3 3 3 3 3 2 2 3 3 3 3 3 4 4 5 5 7 8 10 12 13 14 15 17 17 17 18 17 17 17 17 16 15 15
Wind_Speed
132 132 132 133 134 134 135 135 135 134 132 130 128 127 126 124 122 120 119 117 115 113 111 110 108 107 106 105 104 102 101 100 98 96 94 92 91 90 90 90 90 89 88 88 88 88 88 86 84 83 83 82
131 131 132 132 133 134 135 135 135 135 133 132 130 130 129 128 126 125 123 122 120 117 116 114 113 112 111 110 108 106 105 103 102 100 98 97 96 94 93 92 91 91 91 91 90 90 91 90 88 86 85 85
131 131 131 132 133 134 134 135 136 135 134 133 132 131 131 130 129 128 127 126 124 122 120 118 117 116 115 114 112 110 109 107 105 104 102 102 101 99 97 96 94 93 93 93 93 92 93 93 92 90 88 87
130 131 131 131 132 133 134 135 135 136 135 134 133 132 132 131 131 130 129 129 127 126 124 122 121 120 118 117 116 114 112 111 109 108 106 105 104 102 101 100 98 96 95 94 94 94 94 95 95 94 92 90
124 128 130 131 131 132 133 134 135 135 136 135 134 133 133 132 132 132 131 131 130 129 127 126 124 123 122 121 119 118 116 115 113 112 110 109 108 106 105 104 103 101 99 97 96 95 95 96 97 97 96 94
113 119 124 128 130 131 132 133 133 134 135 135 135 134 134 133 133 133 133 133 132 132 130 129 128 127 125 124 123 121 120 118 117 115 113 112 111 109 108 107 106 106 104 102 100 98 97 97 98 99 99 98
106 109 115 119 124 127 130 131 132 133 133 134 134 134 134 134 133 133 133 134 134 134 133 132 131 130 129 128 126 125 123 122 121 119 117 115 114 113 112 111 110 109 108 106 104 102 100 100 100 100 101 101
108 106 108 113 117 120 124 127 129 131 132 132 132 132 133 133 133 133 133 134 135 135 135 135 134 133 132 131 130 128 127 125 124 123 121 119 117 117 116 114 113 112 110 109 108 106 104 103 102 102 102 102
114 110 108 110 113 116 118 122 125 127 129 130 131 130 131 131 132 132 133 134 135 136 136 136 136 136 135 134 133 132 130 129 127 126 124 123 121 120 119 118 116 115 113 112 110 109 108 107 105 104 104 103
118 116 112 110 111 114 116 118 121 123 125 127 127 128 129 129 130 130 131 132 133 135 136 137 138 138 138 137 136 135 134 132 131 129 128 126 125 124 122 121 119 117 115 114 112 111 111 111 110 108 107 106
119 119 117 114 112 113 115 117 118 119 120 121 123 124 125 127 127 127 128 129 131 133 135 138 139 139 140 139 139 138 137 135 134 133 131 130 128 127 126 125 123 120 118 117 115 114 114 114 113 111 110 110
119 120 120 119 116 114 114 114 113 113 115 116 118 120 122 124 125 125 125 127 128 131 133 136 138 139 140 141 141 140 139 138 137 136 134 133 132 130 129 128 126 123 122 121 119 118 117 117 116 114 113 113
117 119 120 121 121 119 116 114 113 112 113 114 115 117 120 122 123 123 124 125 126 128 130 133 136 138 140 141 142 142 141 141 140 139 138 136 135 134 132 131 129 127 126 125 123 122 120 120 118 116 116 116
112 116 119 121 122 121 119 117 117 116 116 116 116 117 119 120 122 123 123 124 125 127 128 130 132 135 137 140 142 142 143 143 142 142 141 140 138 137 135 134 132 131 130 128 126 125 124 123 121 119 118 118
103 109 114 117 120 121 121 120 120 120 120 120 120 120 120 120 121 122 123 124 125 126 127 128 130 132 135 138 140 141 143 144 144 144 143 142 141 140 138 137 135 134 133 132 129 128 127 126 125 123 121 120
93 99 104 110 115 119 121 122 122 123 123 122 122 122 122 122 122 122 123 124 125 126 127 127 128 130 132 135 137 139 141 143 145 145 145 144 143 142 141 140 138 137 136 135 133 132 131 130 128 127 125 123
84 89 95 100 106 111 115 119 122 123 124 124 124 124 124 124 124 124 124 124 125 126 127 128 128 129 130 132 134 136 139 141 143 145 146 146 145 145 144 143 141 140 139 138 137 135 134 133 132 130 128 127
77 82 87 92 97 102 107 112 116 119 121 123 123 124 124 124 124 125 126 126 126 127 128 129 129 129 129 130 132 134 136 139 141 143 145 146 146 146 146 145 144 143 142 141 140 139 138 137 136 134 132 130
73 77 81 85 90 95 99 104 108 112 115 118 119 120 122 123 124 125 126 128 128 129 128 129 130 130 130 130 130 131 133 136 139 141 143 144 146 147 147 147 147 146 144 144 143 142 141 140 139 138 136 134
69 73 76 79 84 89 93 97 101 104 108 112 114 116 118 120 122 124 126 128 129 130 130 130 130 131 131 131 131 131 132 134 137 139 141 143 144 146 147 148 148 147 147 146 146 145 144 143 142 141 139 137
65 69 72 76 80 83 87 91 95 98 102 105 108 112 114 116 118 120 123 126 128 129 130 131 131 132 132 132 132 132 132 133 135 137 140 142 143 144 145 147 148 148 148 148 148 148 147 146 145 144 143 141
60 65 69 72 76 79 82 86 89 93 96 99 103 106 109 112 114 116 119 122 125 127 129 131 132 133 133 133 133 134 134 134 135 137 139 140 142 143 144 145 146 148 149 149 150 150 149 149 148 147 146 144
57 61 64 69 72 75 78 81 84 88 91 94 98 101 104 106 109 112 115 119 121 124 126 130 132 134 134 135 135 135 136 137 137 138 138 139 141 142 143 144 145 146 148 149 150 151 151 151 150 150 149 147
53 57 60 63 67 70 74 77 81 84 87 90 92 96 99 102 104 107 110 113 117 121 124 127 130 133 135 136 137 137 138 138 139 139 139 139 140 141 142 143 145 146 147 148 150 151 153 153 152 152 152 151
49 52 55 58 61 65 70 74 78 81 83 86 88 91 94 97 100 102 105 108 112 116 120 124 127 130 133 135 137 138 139 139 140 141 141 141 141 141 142 143 144 145 146 147 148 150 152 153 153 153 153 153
45 47 50 53 57 60 64 69 73 77 80 82 84 87 90 93 95 99 102 105 107 111 115 119 123 127 130 133 135 137 138 139 140 141 142 143 143 143 143 143 144 145 146 146 147 149 150 151 153 154 154 154
42 44 46 49 52 55 59 63 67 71 75 78 80 83 86 89 91 94 98 100 103 106 110 114 119 123 126 129 132 135 137 139 141 142 143 144 144 145 145 145 145 145 146 146 147 148 149 149 151 153 154 155
39 40 42 45 49 51 54 58 61 65 69 72 75 79 82 85 87 90 93 96 98 101 105 109 113 118 122 126 129 132 135 137 140 142 144 144 145 145 146 147 147 147 147 146 147 147 148 148 150 151 152 154
38 38 39 41 45 48 50 54 56 59 63 66 69 73 76 79 83 86 89 91 95 98 101 104 108 112 116 121 125 128 131 134 137 140 142 144 145 146 146 147 148 149 148 148 148 148 147 148 149 150 150 152
39 37 36 38 40 43 47 50 51 54 58 61 65 68 71 74 78 82 86 89 92 94 97 100 103 107 111 115 120 124 128 131 134 136 139 142 144 146 146 147 148 150 150 150 149 149 149 148 149 149 150 151
41 38 35 36 37 39 43 46 47 49 52 56 60 64 68 71 73 77 81 85 88 91 93 96 99 103 106 110 114 118 123 127 131 133 135 138 141 144 146 147 148 149 151 151 151 150 150 150 150 150 150 151
Wind_Direction
260 259 259 259 258 258 258 258 259 259 258 258 257 256 256 255 255 254 254 253 252 252 251 251 250 250 250 249 248 248 248 247 247 247 246 245 244 243 242 241 239 238 237 236 236 236 237 235 233 234 234 234
260 259 259 258 257 257 257 257 257 257 257 257 256 255 255 254 254 254 253 253 252 252 251 250 250 249 249 249 248 248 247 247 246 246 246 245 245 244 243 242 241 239 238 237 236 236 237 237 234 233 234 235
260 259 258 257 257 256 256 256 256 256 256 256 255 254 254 254 253 253 253 253 252 252 251 250 250 249 249 249 248 248 247 247 246 246 245 245 245 244 244 243 242 240 239 238 237 237 237 238 237 234 233 234
259 259 258 257 256 255 255 255 254 255 255 254 254 253 253 252 252 252 252 252 252 251 251 250 249 249 249 248 248 248 247 247 246 246 245 245 245 244 244 244 243 242 240 239 238 238 237 238 238 237 235 234
257 257 257 256 256 255 254 254 254 253 253 253 253 252 252 251 251 251 251 251 251 251 250 250 249 249 248 248 248 247 247 247 246 246 245 245 245 245 244 244 244 243 242 240 238 238 238 238 238 238 237 235
256 255 255 255 255 255 254 254 253 253 253 252 252 252 251 250 250 250 250 250 250 250 250 249 249 248 248 248 247 247 247 247 246 246 245 245 245 245 245 244 243 243 242 241 240 238 238 238 238 239 238 237
259 255 254 254 253 253 253 253 253 252 252 252 251 251 250 250 249 248 248 249 249 249 249 249 248 248 247 247 247 246 246 246 246 246 245 245 245 244 244 244 243 243 242 242 241 239 238 238 238 238 239 239
263 259 256 254 253 252 252 252 252 252 252 251 251 250 250 249 249 248 247 247 247 248 248 248 248 247 247 247 246 246 246 245 246 246 245 245 244 244 244 243 243 243 242 242 241 241 240 238 238 239 239 239
264 262 259 256 254 252 251 251 250 250 250 250 250 250 250 249 248 248 247 246 246 246 247 247 247 247 247 246 246 246 245 245 245 245 245 245 244 244 244 243 243 243 242 242 241 241 241 240 239 239 239 239
262 262 260 258 255 254 252 251 250 249 249 249 250 250 250 249 249 248 247 246 245 245 245 246 246 247 247 246 246 245 245 244 244 244 244 244 244 244 243 243 243 243 242 242 242 241 241 241 240 239 239 239
259 259 260 259 257 255 253 252 250 249 249 249 249 249 249 249 249 248 247 246 246 245 245 245 245 245 246 246 246 245 245 244 244 244 244 244 244 244 243 243 243 243 243 242 242 241 241 241 240 239 239 240
257 257 257 258 258 257 255 253 252 251 250 250 249 249 248 249 249 248 248 247 246 245 244 244 244 244 244 245 245 245 245 244 244 244 243 243 243 243 243 243 243 243 243 242 242 241 241 241 240 240 239 240
255 255 255 256 257 257 256 255 254 253 252 251 249 249 248 248 247 247 247 247 246 245 244 244 244 243 243 244 244 245 245 244 244 243 243 243 243 243 243 243 243 243 242 242 242 242 241 241 241 240 239 239
254 253 254 254 255 256 256 255 254 253 252 251 250 249 248 247 247 246 246 246 246 245 244 244 243 243 243 243 243 244 244 244 244 243 243 243 243 242 242 242 242 243 243 242 242 242 241 241 241 241 240 239
254 253 253 253 253 254 254 254 254 253 252 251 250 249 248 248 247 246 245 245 245 245 244 244 243 243 243 242 243 243 243 243 244 243 243 243 243 243 242 242 242 242 242 242 242 242 242 241 241 241 240 239
254 253 252 252 252 252 252 252 252 252 251 250 249 249 248 248 247 246 246 245 244 244 244 244 243 243 242 242 242 242 242 243 243 243 243 243 242 242 242 242 242 242 242 242 242 242 242 242 241 241 241 240
256 254 253 252 251 251 251 251 250 250 249 249 248 247 247 246 246 246 245 245 244 244 244 244 243 243 242 242 242 242 242 242 242 243 243 243 242 242 242 242 242 242 242 241 242 242 242 242 241 241 241 241
258 256 254 252 251 251 250 250 250 250 249 248 247 246 246 245 244 244 244 244 244 243 243 243 243 243 243 242 242 241 241 242 242 242 242 242 242 242 242 242 242 242 242 241 241 241 241 241 242 241 241 241
260 258 256 254 252 251 250 249 249 250 250 249 248 247 245 244 243 243 242 242 243 242 242 242 242 242 242 242 242 242 241 241 242 242 242 242 242 242 242 242 241 241 241 241 241 241 241 241 241 241 241 241
262 260 258 256 254 252 251 250 249 248 249 249 249 248 247 245 244 243 242 241 241 241 241 241 241 241 241 241 241 241 241 241 241 241 242 242 242 242 242 241 241 241 241 241 241 241 241 241 241 241 241 241
263 261 259 257 256 254 253 251 250 249 248 247 248 248 248 246 245 243 242 241 241 240 240 240 240 240 240 240 240 240 240 240 241 241 241 241 242 242 242 241 241 241 241 241 241 241 241 241 241 242 242 241
265 262 260 259 257 256 255 253 252 251 249 248 247 246 246 246 246 244 243 242 241 240 240 239 239 239 239 239 239 239 240 240 240 240 240 240 241 241 241 241 241 241 241 241 241 241 241 241 241 242 242 242
269 264 261 259 258 257 256 255 253 252 250 249 248 247 246 245 245 244 244 242 241 240 240 239 239 239 238 238 238 238 239 239 239 239 239 239 240 240 240 241 241 241 241 240 241 241 241 240 241 241 242 242
273 269 265 262 260 258 257 256 254 253 252 250 249 248 247 246 244 243 243 243 242 241 240 239 239 239 238 238 237 237 237 238 238 239 239 239 239 239 239 240 240 240 240 240 240 240 240 240 240 240 241 242
279 274 269 265 261 258 257 256 255 254 253 251 250 248 247 247 246 244 243 242 242 241 241 239 238 238 238 238 237 237 237 237 237 238 238 238 238 239 239 239 239 240 240 240 240 240 240 240 240 240 241 241
285 279 273 268 264 260 258 256 255 255 253 252 251 250 248 247 247 246 244 242 241 240 241 240 239 238 238 238 238 237 237 236 236 237 237 238 238 238 238 238 238 239 239 239 239 240 240 240 240 240 240 241
290 284 278 273 268 264 261 258 256 256 255 254 252 251 250 248 247 246 246 244 242 240 240 240 240 239 238 237 237 237 237 237 236 236 237 237 237 237 238 238 238 238 238 239 239 239 239 239 240 240 240 240
297 289 282 277 272 268 263 261 258 257 256 255 254 252 251 250 248 247 246 246 245 243 241 239 239 239 239 238 237 237 237 237 237 236 236 236 236 236 237 237 238 238 238 238 238 239 239 239 239 239 240 240
306 297 289 281 275 272 267 263 260 258 257 257 256 255 253 252 250 249 247 246 246 245 243 242 240 239 239 239 238 237 237 236 236 236 236 236 236 236 236 236 237 238 238 238 238 238 238 239 239 239 239 240
315 306 297 288 279 275 271 267 264 260 258 256 256 255 254 252 250 249 248 246 245 244 244 243 242 240 239 239 239 238 237 237 236 236 236 236 236 236 236 236 236 237 237 237 237 237 238 238 238 239 239 239
322 314 306 297 287 279 274 271 268 264 260 257 255 254 253 253 252 250 248 247 246 245 244 243 243 242 241 240 239 238 238 238 237 236 236 236 236 236 236 236 236 236 237 237 237 237 237 238 238 238 238 239